INTELSAT 904

operational
NORAD ID: 27380 Int'l Des: 2002-007 Owner: INTELD Country: US
HEOCIRCULARGSO

Über INTELSAT 904

Beschreibung wird geladen...

Live-Position

3D-Globus wird geladen...

Nächste Überflüge

Höhenverlauf

Altitude vs Time

uPlot chart will show altitude changes over time

Zweizeiliger Elementsatz

1 27380U 02007A 26062.36629469 -.00000237 00000-0 00000+0 0 9992
2 27380 6.6561 70.4535 0006075 305.2038 245.8382 1.00273352 50706
Epoch: 3. März 2026 • Age: 29 hours

Aktueller Status

Höhe 35810.0 km
Geschwindigkeit 3.07 km/s
Subsatellitenpunkt 4.25°N, 31.32°W
Startdatum 23. Feb. 2002
Alter 24 years
Typ communications

Technische Details

Klassifizierung Payload
Masse 4680.00 kg
Trockenmasse 2350.00 kg
Gesamtmasse 4680.00 kg
Länge 5.60 m
Durchmesser 2.80 m
Spannweite 31.00 m
Form Box + 2 Pan + 2 Dish
Hersteller LOR
Bus-Typ FS-1300HL
Phasenstatus In Orbit
Besitzer/Staat INTELD/US

Große Konstellationen

Loading constellations...